Weather History for Monroe, MI

Change the Weather History Date:

Tuesday, September 17, 2013

  Actual Average Record
Temperature  
Mean Temperature 54 °F -  
Max Temperature 66 °F 71 °F 100 °F (1939)
Min Temperature 41 °F 53 °F 34 °F (1959)
Degree Days  
Heating Degree Days 12    
Growing Degree Days 4 (Base 50)    
Moisture  
Dew Point 47 °F    
Average Humidity 79    
Maximum Humidity 100    
Minimum Humidity 49    
Precipitation  
Precipitation 0.00 in - - ()
Sea Level Pressure  
Sea Level Pressure 30.33 in    
Wind  
Wind Speed 2 mph (East)    
Max Wind Speed 12 mph    
Max Gust Speed 16 mph    
Visibility 10 miles    
Events      
Averages and records for this station are not official NWS values.
T = Trace of Precipitation, MM = Missing Value Source: NWS Daily Summary

Daily Weather History Graph

Daily Weather History Graph

Search for Another Location

Airport:

Trip Planner

Search our weather history database for the weather conditions in past years. The results will help you decide how hot, cold, wet, or windy it might be!

Date:

Astronomy

Sep. 17, 2013 Rise Set
Actual Time 7:16 AM EDT 7:39 PM EDT
Civil Twilight 6:48 AM EDT 8:07 PM EDT
Nautical Twilight 6:15 AM EDT 8:40 PM EDT
Astronomical Twilight 5:41 AM EDT 9:13 PM EDT
Moon 6:26 PM EDT (9/17) 5:08 AM EDT (9/17)
Length of Visible Light 13h 18m
Length of Day
12h 23m
Waxing Gibbous, 96% of the Moon is Illuminated
Sep 17
Waxing Gibbous
Sep 19
Full
Sep 26
Last Quarter
Oct 4
New
Oct 11
First Quarter

Hourly Weather History & Observations

Time (EDT) Temp. Windchill Dew Point Humidity Pressure Visibility Wind Dir Wind Speed Gust Speed Precip Events Conditions
12:16 AM 50.0 °F - 46.4 °F 87% 30.36 in 10.0 mi Calm Calm - N/A   Clear
12:36 AM 48.2 °F - 46.4 °F 93% 30.36 in 10.0 mi Calm Calm - N/A   Clear
12:56 AM 46.4 °F 44.3 °F 44.6 °F 93% 30.36 in 10.0 mi North 4.6 mph - N/A   Clear
1:16 AM 48.2 °F - 44.6 °F 87% 30.36 in 10.0 mi Calm Calm - N/A   Clear
1:36 AM 46.4 °F - 44.6 °F 93% 30.36 in 10.0 mi Calm Calm - N/A   Clear
1:56 AM 44.6 °F - 42.8 °F 93% 30.37 in 10.0 mi Calm Calm - N/A   Clear
2:16 AM 42.8 °F - 42.8 °F 100% 30.37 in 10.0 mi Calm Calm - N/A   Clear
2:36 AM 42.8 °F - 42.8 °F 100% 30.37 in 10.0 mi Calm Calm - N/A   Clear
2:57 AM 44.6 °F - 42.8 °F 93% 30.37 in 10.0 mi Calm Calm - N/A   Clear
3:12 AM 42.8 °F - 42.8 °F 100% 30.37 in 10.0 mi Calm Calm - N/A   Clear
3:32 AM 42.8 °F - 41.0 °F 93% 30.37 in 10.0 mi Calm Calm - N/A   Clear
3:52 AM 42.8 °F - 42.8 °F 100% 30.37 in 10.0 mi Calm Calm - N/A   Clear
4:12 AM 42.8 °F - 41.0 °F 93% 30.37 in 10.0 mi Calm Calm - N/A   Clear
4:32 AM 42.8 °F - 41.0 °F 93% 30.38 in 10.0 mi Calm Calm - N/A   Clear
4:52 AM 42.8 °F - 41.0 °F 93% 30.38 in 10.0 mi Calm Calm - N/A   Clear
5:12 AM 42.8 °F - 41.0 °F 93% 30.38 in 10.0 mi Calm Calm - N/A   Clear
5:32 AM 42.8 °F 41.1 °F 42.8 °F 100% 30.38 in 10.0 mi North 3.5 mph - N/A   Clear
5:52 AM 42.8 °F - 42.8 °F 100% 30.38 in 10.0 mi Calm Calm - N/A   Clear
6:13 AM 41.0 °F 38.0 °F 41.0 °F 100% 30.38 in 10.0 mi North 4.6 mph - N/A   Clear
6:33 AM 42.8 °F 40.1 °F 42.8 °F 100% 30.38 in 10.0 mi North 4.6 mph - N/A   Clear
6:53 AM 42.8 °F 41.1 °F 41.0 °F 93% 30.38 in 10.0 mi North 3.5 mph - N/A   Clear
7:13 AM 42.8 °F - 41.0 °F 93% 30.38 in 10.0 mi Calm Calm - N/A   Scattered Clouds
7:33 AM 44.6 °F - 42.8 °F 93% 30.38 in 10.0 mi Calm Calm - N/A   Mostly Cloudy
7:53 AM 44.6 °F - 44.6 °F 100% 30.39 in 10.0 mi Calm Calm - N/A   Scattered Clouds
8:13 AM 46.4 °F - 44.6 °F 93% 30.38 in 10.0 mi Calm Calm - N/A   Scattered Clouds
8:33 AM 46.4 °F 44.3 °F 46.4 °F 100% 30.38 in 10.0 mi North 4.6 mph - N/A   Scattered Clouds
8:53 AM 48.2 °F - 46.4 °F 93% 30.38 in 10.0 mi Calm Calm - N/A   Mostly Cloudy
9:13 AM 51.8 °F - 50.0 °F 94% 30.38 in 10.0 mi Calm Calm - N/A   Scattered Clouds
9:34 AM 53.6 °F - 51.8 °F 94% 30.38 in 10.0 mi ENE 3.5 mph - N/A   Clear
9:54 AM 57.2 °F - 53.6 °F 88% 30.38 in 10.0 mi ENE 3.5 mph - N/A   Clear
10:14 AM 57.2 °F - 53.6 °F 88% 30.38 in 10.0 mi Calm Calm - N/A   Scattered Clouds
10:34 AM 59.0 °F - 53.6 °F 82% 30.38 in 10.0 mi Calm Calm - N/A   Mostly Cloudy
10:54 AM 60.8 °F - 55.4 °F 82% 30.38 in 10.0 mi Calm Calm - N/A   Overcast
11:14 AM 62.6 °F - 55.4 °F 77% 30.38 in 10.0 mi East 3.5 mph - N/A   Mostly Cloudy
11:34 AM 64.4 °F - 53.6 °F 68% 30.38 in 10.0 mi East 8.1 mph 16.1 mph N/A   Mostly Cloudy
11:54 AM 62.6 °F - 51.8 °F 68% 30.38 in 10.0 mi East 6.9 mph - N/A   Overcast
12:14 PM 64.4 °F - 51.8 °F 64% 30.37 in 10.0 mi ESE 6.9 mph - N/A   Mostly Cloudy
12:35 PM 64.4 °F - 51.8 °F 64% 30.37 in 10.0 mi East 9.2 mph - N/A   Mostly Cloudy
12:55 PM 64.4 °F - 51.8 °F 64% 30.36 in 10.0 mi East 8.1 mph - N/A   Mostly Cloudy
1:15 PM 66.2 °F - 51.8 °F 60% 30.36 in 10.0 mi SE 9.2 mph - N/A   Scattered Clouds
1:35 PM 66.2 °F - 48.2 °F 52% 30.35 in 10.0 mi East 8.1 mph 16.1 mph N/A   Clear
1:55 PM 66.2 °F - 48.2 °F 52% 30.34 in 10.0 mi ESE 8.1 mph - N/A   Clear
2:15 PM 66.2 °F - 48.2 °F 52% 30.33 in 10.0 mi ESE 9.2 mph - N/A   Clear
2:35 PM 66.2 °F - 48.2 °F 52% 30.33 in 10.0 mi East 10.4 mph - N/A   Clear
2:55 PM 66.2 °F - 50.0 °F 56% 30.32 in 10.0 mi SE 11.5 mph - N/A   Clear
3:15 PM 66.2 °F - 50.0 °F 56% 30.31 in 10.0 mi East 8.1 mph - N/A   Clear
3:35 PM 66.2 °F - 48.2 °F 52% 30.31 in 10.0 mi ESE 8.1 mph - N/A   Clear
3:56 PM 64.4 °F - 48.2 °F 56% 30.30 in 10.0 mi ESE 9.2 mph - N/A   Clear
4:16 PM 64.4 °F - 48.2 °F 56% 30.29 in 10.0 mi East 9.2 mph - N/A   Clear
4:36 PM 66.2 °F - 46.4 °F 49% 30.28 in 10.0 mi East 9.2 mph - N/A   Clear
4:56 PM 66.2 °F - 46.4 °F 49% 30.28 in 10.0 mi ESE 9.2 mph - N/A   Clear
5:16 PM 64.4 °F - 46.4 °F 52% 30.28 in 10.0 mi ESE 8.1 mph - N/A   Clear
5:36 PM 64.4 °F - 46.4 °F 52% 30.27 in 10.0 mi East 8.1 mph - N/A   Clear
5:56 PM 64.4 °F - 46.4 °F 52% 30.27 in 10.0 mi ESE 8.1 mph - N/A   Clear
6:16 PM 62.6 °F - 46.4 °F 55% 30.27 in 10.0 mi ESE 5.8 mph - N/A   Clear
6:36 PM 64.4 °F - 46.4 °F 52% 30.26 in 10.0 mi East 5.8 mph - N/A   Clear
6:56 PM 62.6 °F - 48.2 °F 59% 30.26 in 10.0 mi East 3.5 mph - N/A   Clear
7:17 PM 60.8 °F - 48.2 °F 63% 30.25 in 10.0 mi Calm Calm - N/A   Clear
7:37 PM 57.2 °F - 48.2 °F 72% 30.24 in 10.0 mi East 3.5 mph - N/A   Clear
7:52 PM 57.2 °F - 48.2 °F 72% 30.24 in 10.0 mi Calm Calm - N/A   Clear
8:12 PM 53.6 °F - 48.2 °F 82% 30.24 in 10.0 mi ENE 4.6 mph - N/A   Clear
8:32 PM 55.4 °F - 48.2 °F 77% 30.24 in 10.0 mi East 4.6 mph - N/A   Clear
8:52 PM 55.4 °F - 48.2 °F 77% 30.24 in 10.0 mi Calm Calm - N/A   Clear
9:12 PM 55.4 °F - 48.2 °F 77% 30.23 in 10.0 mi Calm Calm - N/A   Clear
9:32 PM 53.6 °F - 48.2 °F 82% 30.23 in 10.0 mi Calm Calm - N/A   Clear
9:52 PM 53.6 °F - 50.0 °F 88% 30.22 in 10.0 mi NE 3.5 mph - N/A   Clear
10:12 PM 53.6 °F - 50.0 °F 88% 30.21 in 10.0 mi ENE 3.5 mph - N/A   Clear
10:33 PM 53.6 °F - 48.2 °F 82% 30.22 in 10.0 mi Calm Calm - N/A   Clear
10:53 PM 51.8 °F - 48.2 °F 88% 30.22 in 10.0 mi Calm Calm - N/A   Clear
11:13 PM 50.0 °F - 48.2 °F 94% 30.22 in 10.0 mi Calm Calm - N/A   Clear
11:33 PM 50.0 °F - 48.2 °F 94% 30.21 in 10.0 mi Calm Calm - N/A   Clear
11:53 PM 50.0 °F - 48.2 °F 94% 30.21 in 10.0 mi Calm Calm - N/A   Clear